Station FRMA1 - 8734383 - Fort Morgan, AL Image indicating link to RSS feed of recent meteorological observations for station FRMA1


Conditions at FRMA1 as of
(3:18 pm CDT)
2018 GMT on 04/13/2024:
     

Click on the graph icon in the table below to see a time series plot of the last five days of that observation.

5-day plot - Wind Direction Wind Direction (WDIR):SSW ( 200 deg true )
5-day plot - Wind Speed Wind Speed (WSPD): 9.9 kts
5-day plot - Wind Gust Wind Gust (GST): 12.0 kts
5-day plot - Atmospheric Pressure Atmospheric Pressure (PRES):30.24 in
5-day plot - Air Temperature Air Temperature (ATMP): 72.0 °F
5-day plot - Dew Point Dew Point (DEWP): 60.4 °F
5-day plot - Visibility Visibility (VIS): 5.9 nmi
5-day plot - Wind Speed at 10 Meters Wind Speed at 10 meters (WSPD10M): 9.7 kts
5-day plot - Wind Speed at 20 Meters Wind Speed at 20 meters (WSPD20M): 11.7 kts
5-day plot -  Wind Speed, Wind Gust and Atmospheric Pressure Combined plot of Wind Speed, Gust, and Air Pressure
NOS Water Level Observation Network Water Level
Previous observations
TIME
(CDT)
5-day plot - Wind Direction
WDIR
 
5-day plot - Wind Speed
WSPD
kts
5-day plot - Wind Gust
GST
kts
5-day plot - Wave Height
WVHT
ft
5-day plot - Dominant Wave Period
DPD
sec
5-day plot - Average Wave Period
APD
sec
5-day plot - Mean Wave Direction
MWD
 
5-day plot - Atmospheric Pressure
PRES
in
5-day plot - Pressure Tendency
PTDY
in
5-day plot - Air Temperature
ATMP
°F
5-day plot - Water Temperature
WTMP
°F
5-day plot - Dew Point
DEWP
°F
5-day plot - Salinity
SAL
psu
5-day plot - Visibility
VIS
nmi
5-day plot - Tide (above MLLW)
TIDE
ft
2024-04-13 03:12 pm S 7.0 12.0----30.24- 72.7- 59.9- 5.9-
2024-04-13 03:06 pm S 7.0 12.0----30.24- 72.7- 59.9- 5.9-
2024-04-13 03:00 pm S 7.0 11.1----30.25-0.06 72.5--- 5.9-
2024-04-13 02:54 pm S 8.0 12.0----30.25- 72.3--- 5.9-
2024-04-13 02:48 pm S 8.0 12.0----30.25- 72.1- 59.7- 5.9-
2024-04-13 02:42 pm S 9.9 12.0----30.25- 71.8- 59.4- 5.9-
2024-04-13 02:36 pm S 8.9 12.0----30.25- 71.8- 59.0- 5.9-
2024-04-13 02:30 pm S 7.0 9.9----30.25- 72.1- 60.6- 5.9-
2024-04-13 02:24 pm S 8.0 12.0----30.26- 72.0- 60.1- 5.9-
2024-04-13 02:18 pm S 8.0 11.1----30.26- 72.1- 60.1- 5.9-
2024-04-13 02:12 pm S 7.0 11.1----30.26- 72.1- 60.1- 5.9-
2024-04-13 02:06 pm S 7.0 11.1----30.27- 72.1- 59.7- 5.9-
2024-04-13 02:00 pm S 7.0 11.1----30.27-0.04 72.0- 59.7- 5.9-
2024-04-13 01:54 pm S 7.0 11.1----30.27- 71.8- 60.3- 5.9-
2024-04-13 01:48 pmSSE 8.9 11.1----30.27----- 5.9-
2024-04-13 01:42 pm S 7.0 8.9----30.28----- 5.9-
2024-04-13 01:36 pm S 6.0 9.9----30.28----- 5.9-
2024-04-13 01:30 pmSSE 7.0 9.9----30.28- 71.6- 59.7- 5.9-
2024-04-13 01:24 pmSSE 8.0 9.9----30.28- 71.1- 59.2- 5.9-
2024-04-13 01:18 pm-------30.29----- 5.9-
2024-04-13 01:12 pm-------30.29----- 5.9-
2024-04-13 01:06 pm-------30.29----- 5.9-
2024-04-13 01:00 pm S 7.0 9.9----30.29-0.03 71.2- 59.0- 5.9-
2024-04-13 12:54 pm S 8.9 9.9----30.29- 70.3- 58.8- 5.9-
2024-04-13 12:48 pm SE 7.0 9.9----30.29----- 5.9-
2024-04-13 12:42 pmSSE 8.0 9.9----30.29----- 5.9-
2024-04-13 12:36 pmSSE 6.0 9.9----30.29----- 5.9-
2024-04-13 12:30 pm SE 7.0 8.9----30.30- 70.3- 58.3- 5.9-
2024-04-13 12:24 pmSSE 7.0 8.9----30.30- 69.8- 57.7- 5.9-
2024-04-13 12:18 pm SE 8.0 9.9----30.30- 69.8- 58.1- 5.9-
2024-04-13 12:12 pmSSE 8.0 8.9----30.31- 70.0- 59.2- 5.9-
2024-04-13 12:06 pm SE 7.0 11.1----30.31- 70.0- 59.4- 5.9-
2024-04-13 12:00 pm SE 8.0 9.9----30.31+0.00 69.8- 61.3- 5.9-
2024-04-13 11:54 amSSE 7.0 9.9----30.31- 70.0- 59.5- 5.9-
2024-04-13 11:48 am SE 7.0 9.9----30.31- 70.0- 59.4- 5.9-
2024-04-13 11:42 amESE 8.0 11.1----30.31- 69.6- 59.7- 5.9-
2024-04-13 11:36 amESE 8.0 11.1----30.31- 69.8- 59.9- 5.9-
2024-04-13 11:30 am SE 8.0 9.9----30.32----- 5.9-
2024-04-13 11:24 amESE 7.0 11.1----30.32----- 5.9-
2024-04-13 11:18 amESE 9.9 11.1----30.32----- 5.9-
2024-04-13 11:12 amESE 9.9 12.0----30.32----- 5.9-
2024-04-13 11:06 am SE 7.0 9.9----30.32----- 5.9-
2024-04-13 11:00 amESE 8.9 12.0----30.32+0.01 69.1- 57.2- 5.9-
2024-04-13 10:54 amESE 8.9 9.9----30.32- 69.1- 56.1- 5.9-
2024-04-13 10:48 am-------30.32----- 5.9-
2024-04-13 10:42 am-------30.32----- 5.9-
2024-04-13 10:36 am-------30.32----- 5.9-
2024-04-13 10:30 am SE 8.0 9.9----30.32- 68.9- 58.1- 5.9-
2024-04-13 10:24 am SE 7.0 9.9----30.32- 69.3- 57.2- 5.9-
2024-04-13 10:18 amESE 8.0 9.9----30.32- 68.9- 56.1- 5.9-
2024-04-13 10:12 am SE 8.0 8.9----30.32- 68.7- 56.5- 5.9-
2024-04-13 10:06 amESE 8.0 9.9----30.32- 68.7- 54.3- 5.9-
2024-04-13 10:00 amESE 6.0 7.0----30.32- 69.1- 55.2- 5.9-
2024-04-13 09:54 am SE 7.0 8.0----30.32- 68.9- 54.3- 5.9-
2024-04-13 09:48 amESE 7.0 8.9----30.31- 68.5- 52.3- 5.9-
2024-04-13 09:42 am SE 7.0 8.9----30.31- 68.4- 54.5- 5.9-
2024-04-13 09:36 amESE 5.1 7.0----30.32- 68.7- 53.8- 5.9-
2024-04-13 09:30 amESE 5.1 7.0----30.31- 68.7- 54.5- 5.9-
2024-04-13 09:24 am E 4.1 5.1----30.32- 69.1- 54.7- 5.9-
2024-04-13 09:18 am E 4.1 6.0----30.31- 68.9- 54.0- 5.9-
2024-04-13 09:12 am E 4.1 6.0----30.31- 68.9- 55.0- 5.9-
2024-04-13 09:06 amENE 5.1 6.0----30.31- 68.7- 53.2- 5.9-
2024-04-13 09:00 am E 5.1 7.0----30.31+0.04 68.7- 54.0- 5.9-
2024-04-13 08:54 am E 5.1 6.0----30.31- 68.2- 54.1- 5.9-
2024-04-13 08:48 am E 6.0 7.0----30.31- 68.0- 53.2- 5.9-
2024-04-13 08:42 am E 5.1 6.0----30.31- 67.6- 53.4- 5.9-
2024-04-13 08:36 amENE 6.0 7.0----30.31- 66.9- 55.4- 5.9-
2024-04-13 08:30 amENE 6.0 7.0----30.31- 66.7- 54.1- 5.9-
2024-04-13 08:24 amENE 7.0 8.0----30.31- 66.7- 53.1- 5.9-
2024-04-13 08:18 amENE 8.0 8.0----30.31- 66.7- 53.1- 5.9-
2024-04-13 08:12 amENE 7.0 8.0----30.31- 66.7- 53.6- 5.9-
2024-04-13 08:06 am NE 8.0 8.9----30.31- 66.6- 52.2- 5.9-
2024-04-13 08:00 am NE 7.0 8.0----30.31+0.04---- 5.9-
2024-04-13 07:54 am NE 8.0 8.9----30.31----- 5.9-
2024-04-13 07:48 am NE 8.0 8.9----30.30- 66.7- 53.4---
2024-04-13 07:42 am NE 7.0 8.0----30.30- 66.9- 54.1---
2024-04-13 07:36 am NE 7.0 8.0----30.31- 66.9- 53.8---
2024-04-13 07:30 am NE 7.0 8.0----30.30- 66.9- 53.4- 5.9-
2024-04-13 07:24 am NE 7.0 8.0----30.30- 67.1- 55.0- 5.9-
2024-04-13 07:18 am NE 7.0 8.9----30.30- 66.9- 54.9- 5.9-
2024-04-13 07:12 am NE 8.0 8.9----30.30- 67.1- 53.8- 5.9-
2024-04-13 07:06 am NE 7.0 8.0----30.29- 66.9- 57.0- 5.9-
2024-04-13 07:00 amNNE 7.0 8.0---------- 5.9-
2024-04-13 06:54 amNNE 7.0 8.0---------- 5.9-
2024-04-13 06:48 am NE 7.0 8.0----30.29----- 5.9-
2024-04-13 06:42 am NE 7.0 8.0----30.29----- 5.9-
2024-04-13 06:36 amNNE 8.0 8.0----30.28----- 5.9-
2024-04-13 06:30 amNNE 7.0 8.0----30.28----- 5.9-
2024-04-13 06:24 amNNE 7.0 8.0----30.28----- 5.9-
2024-04-13 06:18 am-------30.27- 65.8- 55.8- 5.9-
2024-04-13 06:12 am-------30.27- 65.8- 54.7- 5.9-
2024-04-13 06:06 am-------30.27- 65.7- 55.8- 5.9-
2024-04-13 06:00 am NE 8.0 9.9----30.27+0.01 65.8- 54.9- 5.9-
2024-04-13 05:54 am NE 9.9 11.1----30.27- 66.0- 52.7- 5.9-
2024-04-13 05:48 amENE 8.0 9.9----30.26----- 5.9-
2024-04-13 05:42 am NE 9.9 11.1----30.26----- 5.9-
2024-04-13 05:36 am NE 8.9 11.1----30.26----- 5.9-
2024-04-13 05:30 am NE 9.9 12.0----30.26- 66.4- 54.0- 5.9-
2024-04-13 05:24 am NE 8.9 11.1----30.26- 66.6- 55.6- 5.9-
2024-04-13 05:18 am-------30.26- 66.6- 52.7- 5.9-
2024-04-13 05:12 am-------30.26- 66.7- 55.2- 5.9-
2024-04-13 05:06 am-------30.26- 67.3- 56.1- 5.9-
2024-04-13 05:00 amNNE 9.9 11.1----30.26+0.01---- 5.9-
2024-04-13 04:54 amNNE 9.9 11.1----30.26----- 5.9-
2024-04-13 04:48 amNNE 8.9 11.1----30.26- 67.5- 56.8- 5.9-
2024-04-13 04:42 amNNE 9.9 11.1----30.26- 67.5- 55.8- 5.9-
2024-04-13 04:36 amNNE 8.9 9.9----30.26- 67.5- 57.4- 5.9-
2024-04-13 04:30 am N 8.9 9.9----30.26- 67.3- 57.2- 5.9-
2024-04-13 04:24 am N 8.0 9.9----30.26- 67.3- 57.4- 5.9-
2024-04-13 04:18 am N 8.9 9.9----30.26- 67.3- 56.1- 5.9-
2024-04-13 04:12 am N 8.9 9.9----30.26- 67.3- 56.3- 5.9-
2024-04-13 04:06 am N 8.9 9.9----30.26- 67.3- 56.8- 5.9-
2024-04-13 04:00 am N 8.9 9.9----30.26+0.00 67.3- 56.1- 5.9-
2024-04-13 03:54 am N 7.0 9.9----30.26- 67.3- 57.7- 5.9-
2024-04-13 03:48 am N 8.0 11.1----30.26- 67.5- 57.9- 5.9-
2024-04-13 03:42 am N 8.9 9.9----30.26- 67.5- 56.7- 5.9-
2024-04-13 03:36 am N 8.0 9.9----30.26- 67.5- 57.9- 5.9-
2024-04-13 03:30 am N 8.9 11.1----30.26----- 5.9-
2024-04-13 03:24 am N 8.9 11.1----30.26----- 5.9-
2024-04-13 03:18 am N 9.9 11.1----30.26- 67.6- 57.0- 5.9-
2024-04-13 03:12 am N 9.9 11.1----30.26- 67.6- 57.4- 5.9-
2024-04-13 03:06 am N 8.9 11.1----30.26- 67.6- 57.0- 5.9-
2024-04-13 03:00 am N 9.9 11.1----30.25+0.00---- 5.9-
2024-04-13 02:54 am N 8.9 9.9----30.25----- 5.9-
2024-04-13 02:48 am N 8.0 9.9----30.25- 67.8- 57.7- 5.9-
2024-04-13 02:42 am N 8.9 11.1----30.25- 67.8- 56.1- 5.9-
2024-04-13 02:36 am N 9.9 11.1----30.25- 68.0- 56.1- 5.9-
2024-04-13 02:30 am N 9.9 12.0----30.25- 68.2- 56.5- 5.9-
2024-04-13 02:24 am N 11.1 13.0----30.25- 68.5- 55.6- 5.9-
2024-04-13 02:18 am N 12.0 13.0----30.25- 68.5- 54.3- 5.9-
2024-04-13 02:12 am N 9.9 13.0----30.25- 68.5- 56.8- 5.9-
2024-04-13 02:06 am N 13.0 14.0----30.25- 68.7- 54.9- 5.9-
2024-04-13 02:00 am N 11.1 12.0----30.25+0.00 68.7- 57.7- 5.9-
2024-04-13 01:54 am N 9.9 12.0----30.25- 68.5- 57.7- 5.9-
2024-04-13 01:48 am N 11.1 12.0----30.25- 68.5- 55.6- 5.9-
2024-04-13 01:42 am N 11.1 12.0----30.25- 68.7- 55.2- 5.9-
2024-04-13 01:36 am N 8.9 11.1----30.26- 68.7- 56.3- 5.9-
2024-04-13 01:30 am N 9.9 12.0----30.26- 68.7- 55.4- 5.9-
2024-04-13 01:24 am N 11.1 12.0----30.26- 68.9- 54.1- 5.9-
2024-04-13 01:18 am N 9.9 12.0----30.26- 68.9- 55.0- 5.9-
2024-04-13 01:12 amNNW 9.9 12.0----30.26- 69.1- 56.1- 5.9-
2024-04-13 01:06 amNNW 9.9 11.1----30.26- 69.1- 56.1- 5.9-
2024-04-13 01:00 amNNW 9.9 12.0----30.26+0.03 68.9- 56.3- 5.9-
2024-04-13 12:54 amNNW 8.9 12.0----30.26- 69.3- 57.0- 5.9-
2024-04-13 12:48 amNNW 9.9 12.0----30.26- 69.3- 56.1- 5.9-
2024-04-13 12:42 amNNW 8.9 9.9----30.26- 69.3- 57.4- 5.9-
2024-04-13 12:36 amNNW 8.9 9.9----30.25- 69.3- 56.7- 5.9-
2024-04-13 12:30 amNNW 9.9 11.1----30.26- 69.4- 57.0- 5.9-
2024-04-13 12:24 amNNW 8.9 12.0----30.25- 69.6- 58.1- 5.9-
2024-04-13 12:18 amNNW 9.9 12.0----30.26- 70.0- 57.2- 5.9-
2024-04-13 12:12 amNNW 9.9 11.1----30.25- 70.2- 56.5- 5.9-
2024-04-13 12:06 amNNW 9.9 12.0----30.26- 70.3- 57.4- 5.9-
2024-04-13 12:00 am-------30.26+0.05 70.5- 57.7---
2024-04-12 11:54 pm-------30.26- 70.7- 56.1---
2024-04-12 11:48 pm NW 9.9 12.0----30.26- 70.7- 58.3- 5.9-
2024-04-12 11:42 pmNNW 11.1 12.0----30.25- 70.9- 57.6- 5.9-
2024-04-12 11:36 pm NW 11.1 13.0----30.25- 71.1- 57.0- 5.9-
2024-04-12 11:30 pm NW 9.9 12.0----30.25- 71.1- 58.3- 5.9-
2024-04-12 11:24 pm NW 9.9 12.0----30.25- 71.2- 59.2- 5.9-
2024-04-12 11:18 pm NW 8.9 11.1----30.25- 71.4- 59.5- 5.9-
2024-04-12 11:12 pm NW 8.9 12.0----30.25- 71.4- 59.5- 5.9-
2024-04-12 11:06 pm NW 9.9 12.0----30.25- 71.8- 57.9- 5.9-
2024-04-12 11:00 pm NW 9.9 12.0----30.25+0.06 72.0- 57.7- 5.9-
2024-04-12 10:54 pm NW 8.0 8.9----30.25- 71.6- 58.3- 5.9-
2024-04-12 10:48 pmWNW 7.0 9.9----30.25- 71.4- 61.0- 5.9-
2024-04-12 10:42 pmWNW 8.9 9.9----30.24- 71.8- 58.5- 5.9-
2024-04-12 10:36 pmWNW 8.0 9.9----30.24- 72.0- 60.8- 5.9-
2024-04-12 10:30 pmWNW 8.9 11.1----30.24- 72.3--- 5.9-
2024-04-12 10:24 pmWNW 8.0 12.0----30.24- 70.9--- 5.9-
2024-04-12 10:18 pm W 7.0 8.0----30.24- 69.8- 68.7- 5.9-
2024-04-12 10:12 pm W 6.0 8.9----30.23- 69.8- 68.7- 5.9-
2024-04-12 10:06 pm W 7.0 8.0----30.23- 69.6- 67.8- 5.9-
2024-04-12 10:00 pmWSW 6.0 8.0----30.23+0.06 69.4- 67.5- 5.9-
2024-04-12 09:54 pmWSW 7.0 8.0----30.23- 69.6- 67.6- 5.9-
2024-04-12 09:48 pmWSW 7.0 8.9----30.23- 69.8- 67.3- 5.9-
2024-04-12 09:42 pmWSW 8.0 9.9----30.23- 69.8- 67.1- 5.9-
2024-04-12 09:36 pmWSW 8.9 11.1----30.22- 70.0- 66.7- 5.9-
2024-04-12 09:30 pmWSW 7.0 9.9----30.22- 70.0- 66.6- 5.9-
2024-04-12 09:24 pm W 8.0 8.9----30.22- 70.0- 66.4- 5.9-
2024-04-12 09:18 pmWSW 8.0 9.9----30.22- 70.0- 66.4- 5.9-
2024-04-12 09:12 pmWSW 7.0 11.1----30.22- 69.8- 66.2- 5.9-
2024-04-12 09:06 pmWSW 8.0 11.1----30.21- 69.8- 66.2- 5.9-
2024-04-12 09:00 pmWSW 7.0 8.9----30.21+0.05 69.8- 66.0- 5.9-
2024-04-12 08:54 pmWSW 7.0 9.9----30.21- 69.8- 66.0- 5.9-
2024-04-12 08:48 pmWSW 7.0 8.9----30.21- 69.8- 66.0- 5.9-
2024-04-12 08:42 pmWSW 8.0 9.9----30.20- 70.0- 66.0- 5.9-
2024-04-12 08:36 pmWSW 8.0 9.9----30.20- 70.0- 65.7- 5.9-
2024-04-12 08:30 pmWSW 8.0 9.9----30.20- 69.8- 65.5- 5.9-
2024-04-12 08:24 pmWSW 8.0 11.1----30.19- 70.0- 65.5- 5.9-
2024-04-12 08:18 pmWSW 8.0 9.9----30.19- 69.8- 65.3- 5.9-
2024-04-12 08:12 pmWSW 8.9 11.1----30.19- 69.8- 64.9- 5.9-
2024-04-12 08:06 pmWSW 8.9 11.1----30.19- 70.0- 64.8- 5.9-
2024-04-12 08:00 pmWSW 8.9 12.0----30.19+0.03 70.0- 64.6- 5.9-
2024-04-12 07:54 pmWSW 8.0 11.1----30.18- 69.8- 64.2- 5.9-
2024-04-12 07:48 pmWSW 8.0 11.1----30.18- 69.8- 64.2- 5.9-
2024-04-12 07:42 pmWSW 8.9 11.1----30.18- 69.8- 64.4- 5.9-
2024-04-12 07:36 pmWSW 8.9 13.0----30.17- 70.0- 64.6- 5.9-
2024-04-12 07:30 pmWSW 9.9 13.0----30.17- 70.0- 64.8- 5.9-
2024-04-12 07:24 pmWSW 9.9 13.0----30.17- 70.0- 64.0- 5.9-
2024-04-12 07:18 pmWSW 8.9 13.0----30.17- 69.8- 63.9- 5.9-
2024-04-12 07:12 pmWSW 11.1 14.0----30.17- 70.0- 63.7- 5.9-
2024-04-12 07:06 pmWSW 9.9 14.0----30.17- 70.2- 63.7- 5.9-
2024-04-12 07:00 pmWSW 9.9 14.0----30.17+0.00 70.3- 63.9- 5.9-
2024-04-12 06:54 pmWSW 11.1 14.0----30.16- 70.3- 64.0- 5.9-
2024-04-12 06:48 pmWSW 9.9 14.0----30.16- 70.5- 63.9- 5.9-
2024-04-12 06:42 pmWSW 9.9 14.0----30.16- 70.7- 63.9- 5.9-
2024-04-12 06:36 pmWSW 9.9 14.0----30.16- 70.9- 63.9- 5.9-
2024-04-12 06:30 pmWSW 12.0 14.0----30.16- 71.1- 63.3- 5.9-
2024-04-12 06:24 pmWSW 11.1 15.9----30.16- 71.1- 62.6- 5.9-
2024-04-12 06:00 pmWSW 12.0 15.9----30.16-0.01 71.2- 62.2- 5.9-
2024-04-12 05:54 pmWSW 12.0 15.9----30.16- 71.2- 62.6- 5.9-
2024-04-12 05:48 pmWSW 11.1 15.9----30.16- 71.2- 61.7- 5.9-
2024-04-12 05:42 pmWSW 12.0 15.0----30.15- 71.4- 61.9- 5.9-
2024-04-12 05:36 pmWSW 9.9 15.0----30.16- 71.6- 62.2- 5.9-
2024-04-12 05:30 pmWSW 12.0 15.0----30.15- 71.1- 61.2- 5.9-
2024-04-12 05:24 pmWSW 15.0 17.1----30.15- 70.7- 61.7- 5.9-
2024-04-12 05:18 pmWSW 12.0 17.1----30.15- 70.9- 61.3- 5.9-
2024-04-12 05:12 pmWSW 9.9 15.0----30.15- 71.2- 61.7- 5.9-
2024-04-12 05:06 pmWSW 11.1 15.0----30.15- 71.2- 61.3- 5.9-
2024-04-12 05:00 pmWSW 13.0 15.9----30.15-0.03 70.7- 61.0- 5.9-
2024-04-12 04:54 pm W 15.0 17.1----30.15- 70.5- 60.8- 5.9-
2024-04-12 04:48 pmWSW 13.0 17.1----30.15- 70.7- 60.8- 5.9-
2024-04-12 04:42 pmWSW 14.0 15.9----30.15- 70.3- 59.9- 5.9-
2024-04-12 04:36 pmWSW 13.0 17.1----30.16- 70.5- 61.3- 5.9-
2024-04-12 04:30 pmWSW 15.0 18.1----30.15- 70.3- 60.4- 5.9-
2024-04-12 04:24 pmWSW 13.0 17.1----30.16- 70.3- 61.0- 5.9-
2024-04-12 04:18 pm W 15.0 17.1----30.16- 70.2- 60.3- 5.9-
2024-04-12 04:12 pmWSW 13.0 17.1----30.16- 70.0- 58.6- 5.9-
2024-04-12 04:06 pmWSW 12.0 17.1----30.16- 70.3- 59.5- 5.9-
2024-04-12 04:00 pm W 13.0 15.9----30.16-0.04 70.5- 59.9- 5.9-
2024-04-12 03:54 pm W 12.0 15.9----30.16- 70.3- 59.9- 5.9-
2024-04-12 03:48 pmWSW 12.0 15.9----30.16- 70.2- 60.3- 5.9-
2024-04-12 03:42 pmWSW 12.0 15.0----30.16- 70.2- 60.1- 5.9-
2024-04-12 03:36 pmWSW 12.0 15.9----30.17- 70.0- 60.1- 5.9-
2024-04-12 03:30 pm W 13.0 15.0----30.17- 69.6- 60.3- 5.9-
2024-04-12 03:24 pmWSW 13.0 15.9----30.17- 69.6- 59.9- 5.9-
2024-04-12 03:18 pm W 11.1 15.0----30.17- 70.0- 60.4- 5.9-
2024-04-12 03:12 pmWSW 14.0 15.9----30.17- 69.4- 59.5- 5.9-
2024-04-12 03:06 pm W 13.0 15.0----30.17- 70.0- 59.4- 5.9-
2024-04-12 03:00 pmWSW 11.1 15.9----30.17-0.04 69.8- 59.4- 5.9-
2024-04-12 02:54 pm W 12.0 15.9----30.17- 69.8- 59.2- 5.9-